Slocum (G2) India (unit_553) on mission MASSMO 3 Piloting

  • Public vehicle
  • Serial Number unit_553
  • Operated by RN on the MASSMO project

  • Deployed: 2016/09/15 00:00:00 UTC (1127 days ago)
  • Recovered: 2016/10/01 16:00:00 UTC (1111 days ago)
  • Time at Sea: 16 days
  • Profiles Performed: 783

Near Real-Time Data

 
backscatter
cdom
chlorophyll
conductivity
density
salinity
sound_velocity
temperature

Communication Log

# Updated Depth Speed Plots
1084098 2016-10-01 15:16:37 UTC (1111 days ago)
1084091 2016-10-01 15:10:38 UTC (1111 days ago)
1084086 2016-10-01 15:04:23 UTC (1111 days ago)
1084077 2016-10-01 14:58:00 UTC (1111 days ago)
1084069 2016-10-01 14:51:47 UTC (1111 days ago)
1084063 2016-10-01 14:45:11 UTC (1111 days ago)
1084062 2016-10-01 14:44:52 UTC (1111 days ago)
1084010 2016-10-01 14:04:16 UTC (1111 days ago)
1083997 2016-10-01 13:56:32 UTC (1111 days ago)
1083996 2016-10-01 13:56:18 UTC (1111 days ago)
1083948 2016-10-01 13:29:00 UTC (1111 days ago)
1083942 2016-10-01 13:26:45 UTC (1111 days ago)
1083933 2016-10-01 13:23:46 UTC (1111 days ago)
1083931 2016-10-01 13:22:44 UTC (1111 days ago)
1083930 2016-10-01 13:22:24 UTC (1111 days ago)
1083887 2016-10-01 12:52:51 UTC (1111 days ago)
1083885 2016-10-01 12:50:35 UTC (1111 days ago)
1083879 2016-10-01 12:47:46 UTC (1111 days ago)
1083878 2016-10-01 12:46:43 UTC (1111 days ago)
1083877 2016-10-01 12:46:29 UTC (1111 days ago)